Le nostre stazioni meteo in Italia

Pubblicità
Il mio iltempo24.it
Pratica Di Mare, Italia (16245): Temperatura & dewpoint: 10.02.2019 07:00:00 - 16.02.2019 07:00:00 (CET)Pratica Di Mare, Italia (16245): velocità del vento: 10.02.2019 07:00:00 - 16.02.2019 07:00:00 (CET)Pratica Di Mare, Italia (16245): direzione del vento: 10.02.2019 07:00:00 - 16.02.2019 07:00:00 (CET)Pratica Di Mare, Italia (16245): reduced air pressure: 10.02.2019 07:00:00 - 16.02.2019 07:00:00 (CET)Pratica Di Mare, Italia (16245): visibility: 10.02.2019 07:00:00 - 16.02.2019 07:00:00 (CET)
Data & Tempo tt [°C] td [°C] ff [km/h] ff [kn] dd ppp [hPa] vv [km]
16.02.2019 07:00:00 5,0 -1,0 16 9 NNE 1028,9 20
16.02.2019 06:00:00 5,0 -1,0 15 8 NNE - 10
16.02.2019 05:00:00 6,0 -2,0 16 9 NNE - 10
16.02.2019 04:00:00 6,2 -1,7 16 9 N 1028,7 15
16.02.2019 03:00:00 6,0 0,0 15 8 NNE - 10
16.02.2019 02:00:00 6,0 1,0 13 7 NNE - 10
16.02.2019 01:00:00 6,0 1,0 13 7 NNE 1028,2 15
16.02.2019 00:00:00 6,0 5,0 9 5 NNE - 10
15.02.2019 23:00:00 6,0 5,0 8 4 NNE - 10
15.02.2019 22:00:00 7,4 6,7 4 2 SSE 1027,4 15
15.02.2019 21:00:00 8,0 7,0 9 5 NNE - 10
15.02.2019 20:00:00 10,0 9,0 5 3 NE - 10
15.02.2019 19:00:00 10,4 9,0 5 3 ENE 1026,1 15
15.02.2019 18:00:00 12,0 9,0 11 6 SE - 10
15.02.2019 17:00:00 13,0 7,0 15 8 SE - 10
15.02.2019 16:00:00 14,6 2,5 11 6 SSE 1024,6 15
15.02.2019 15:00:00 15,0 5,0 15 8 S - 10
15.02.2019 14:00:00 15,0 3,0 9 5 SO - 10
15.02.2019 13:00:00 16,2 -0,1 8 4 ONO 1026,4 15
15.02.2019 12:00:00 15,0 -3,0 13 7 N - 10
15.02.2019 11:00:00 14,0 -3,0 22 12 N - 10
15.02.2019 10:00:00 11,4 -3,9 24 13 NNE 1027,6 15
15.02.2019 09:00:00 9,0 -4,0 18 10 NNE - 10
15.02.2019 08:00:00 7,0 -3,0 21 11 NNE - 10
15.02.2019 07:00:00 6,0 -3,4 16 9 NNE 1027,9 15
15.02.2019 06:00:00 6,0 0,0 15 8 NE - 10
15.02.2019 05:00:00 6,0 2,0 15 8 NNE - 10
15.02.2019 04:00:00 5,2 3,2 9 5 N 1029,0 15
15.02.2019 03:00:00 5,0 3,0 8 4 NNE - 10
15.02.2019 02:00:00 6,0 4,0 5 3 NNE - 10
15.02.2019 01:00:00 5,8 4,4 9 5 NNE 1029,0 15
15.02.2019 00:00:00 6,0 5,0 9 5 NE - 10
14.02.2019 23:00:00 7,0 5,0 8 4 ENE - 10
14.02.2019 22:00:00 6,8 5,3 13 7 E 1029,8 15
14.02.2019 21:00:00 7,0 6,0 5 3 ESE - 10
14.02.2019 20:00:00 7,0 5,0 5 3 E - 10
14.02.2019 19:00:00 8,4 6,2 8 4 ESE 1030,3 15
14.02.2019 18:00:00 11,0 7,0 4 2 O - 10
14.02.2019 17:00:00 13,0 7,0 13 7 O - 10
14.02.2019 16:00:00 13,6 7,2 16 9 O 1030,4 25
14.02.2019 15:00:00 14,0 7,0 22 12 O - 10
14.02.2019 14:00:00 14,0 5,0 21 11 O - 10
14.02.2019 13:00:00 14,8 -1,3 8 4 N 1032,3 25
14.02.2019 12:00:00 13,0 -1,0 9 5 NE - 10
14.02.2019 11:00:00 12,0 -2,0 13 7 NNE - 10
14.02.2019 10:00:00 9,6 -0,9 16 9 NNE 1031,9 25
14.02.2019 09:00:00 8,0 -1,0 13 7 NNE - 10
14.02.2019 08:00:00 5,0 -3,0 13 7 NNE - 10
14.02.2019 07:00:00 4,8 -5,3 18 10 NNE 1032,2 15
14.02.2019 06:00:00 6,0 -2,0 11 6 NE - 10
14.02.2019 05:00:00 6,0 -3,0 21 11 NNE - 10
14.02.2019 04:00:00 6,2 -3,4 22 12 NNE 1031,8 12
14.02.2019 03:00:00 7,0 -3,0 24 13 NNE - 10
14.02.2019 02:00:00 7,0 -4,0 22 12 N - 10
14.02.2019 01:00:00 7,2 -4,2 21 11 NNE 1031,8 15
14.02.2019 00:00:00 7,0 -4,0 21 11 NNE - 10
13.02.2019 23:00:00 7,0 -5,0 16 9 N - 10
13.02.2019 22:00:00 7,8 -5,3 18 10 NNE 1031,5 15
13.02.2019 21:00:00 8,0 -5,0 24 13 NNE - 10
13.02.2019 20:00:00 9,0 -5,0 18 10 N - 10
13.02.2019 19:00:00 9,8 -6,1 16 9 N 1030,5 15
13.02.2019 18:00:00 11,0 -7,0 13 7 NNO - 10
13.02.2019 17:00:00 13,0 -6,0 15 8 NO - 10
13.02.2019 16:00:00 12,6 -7,4 16 9 N 1030,7 15
13.02.2019 15:00:00 14,0 -7,0 15 8 N - 10
13.02.2019 14:00:00 14,0 -7,0 18 10 NNE - 10
13.02.2019 13:00:00 12,6 -6,4 21 11 NNE 1031,4 15
13.02.2019 12:00:00 12,0 -5,0 22 12 N - 10
13.02.2019 11:00:00 10,0 -6,0 21 11 N - 10
13.02.2019 10:00:00 8,4 -3,8 18 10 N 1031,2 15
13.02.2019 09:00:00 7,0 -4,0 16 9 N - 10
13.02.2019 08:00:00 4,0 -5,0 13 7 NNE - 10
13.02.2019 07:00:00 4,2 -4,8 15 8 NNE 1029,7 12
13.02.2019 06:00:00 4,0 -5,0 16 9 NNE - 10
13.02.2019 05:00:00 4,0 -5,0 21 11 NE - 10
13.02.2019 04:00:00 4,2 -5,3 15 8 NNE 1028,7 12
13.02.2019 03:00:00 4,0 -7,0 13 7 NE - 10
13.02.2019 02:00:00 4,0 -7,0 11 6 NNE - 10
13.02.2019 01:00:00 4,2 -6,1 11 6 NNE 1027,7 12
13.02.2019 00:00:00 3,0 -5,0 11 6 N - 10
12.02.2019 23:00:00 4,0 -7,0 11 6 N - 10
12.02.2019 22:00:00 5,2 -8,0 9 5 N 1026,5 12
12.02.2019 21:00:00 7,0 -8,0 13 7 ENE - 10
12.02.2019 20:00:00 7,0 -8,0 11 6 NE - 10
12.02.2019 19:00:00 10,4 -12,9 9 5 N 1024,6 15
12.02.2019 18:00:00 11,0 -13,0 9 5 N - 10
12.02.2019 17:00:00 14,0 -13,0 11 6 N - 10
12.02.2019 16:00:00 14,2 -15,8 21 11 N 1022,9 15
12.02.2019 15:00:00 15,0 -12,0 21 11 N - 10
12.02.2019 14:00:00 14,0 -10,0 18 10 N - 10
12.02.2019 13:00:00 13,4 -7,3 18 10 N 1022,8 15
12.02.2019 12:00:00 12,0 -4,0 11 6 NO - 10
12.02.2019 11:00:00 11,0 -3,0 13 7 NNO - 10
12.02.2019 10:00:00 7,2 -3,1 15 8 N 1022,7 15
12.02.2019 09:00:00 7,0 -2,0 13 7 NNO - 10
12.02.2019 08:00:00 4,0 -2,0 9 5 N - 10
12.02.2019 07:00:00 4,8 -1,2 11 6 NNE 1020,9 15
12.02.2019 06:00:00 4,0 -1,0 21 11 NNE - 10
12.02.2019 05:00:00 4,0 0,0 9 5 NNE - 10
12.02.2019 04:00:00 4,0 -0,2 9 5 NNE 1019,7 15
12.02.2019 03:00:00 3,0 2,0 11 6 NNE - 10
12.02.2019 02:00:00 3,0 2,0 4 2 NNE - 10
12.02.2019 01:00:00 3,6 2,7 5 3 NNE 1017,9 15
12.02.2019 00:00:00 5,0 3,0 5 3 N - 10
11.02.2019 23:00:00 6,0 3,0 8 4 N - 10
11.02.2019 22:00:00 7,0 2,9 8 4 N 1015,8 15
11.02.2019 21:00:00 8,0 1,0 9 5 N - 10
11.02.2019 20:00:00 9,0 -1,0 13 7 N - 10
11.02.2019 19:00:00 9,6 -0,9 28 15 NE 1013,5 10
11.02.2019 18:00:00 13,0 1,0 16 9 NO - 10
11.02.2019 17:00:00 13,0 2,0 16 9 N - 10
11.02.2019 16:00:00 13,6 1,6 46 25 ONO 1010,0 12
11.02.2019 15:00:00 14,0 2,0 34 18 ONO - 10
11.02.2019 14:00:00 12,0 2,0 29 16 ONO - 10
11.02.2019 13:00:00 14,0 5,6 37 20 ONO 1010,2 10
11.02.2019 12:00:00 13,0 4,0 29 16 NO - 10
11.02.2019 11:00:00 13,0 3,0 18 10 NO - 10
11.02.2019 10:00:00 12,6 3,0 18 10 NO 1010,6 10
11.02.2019 09:00:00 12,0 4,0 16 9 NO - 10
11.02.2019 08:00:00 12,0 5,0 18 10 NO - 10
11.02.2019 07:00:00 13,4 10,4 21 11 O 1009,6 10
11.02.2019 06:00:00 13,0 10,0 22 12 OSO - 10
11.02.2019 05:00:00 13,0 9,0 21 11 SSO - 10
11.02.2019 04:00:00 13,0 9,1 18 10 SSO 1010,6 10
11.02.2019 03:00:00 12,0 11,0 11 6 ESE - 10
11.02.2019 02:00:00 12,0 11,0 9 5 E - 10
11.02.2019 01:00:00 12,4 11,1 16 9 ESE 1013,9 10
11.02.2019 00:00:00 11,0 10,0 18 10 ESE - 10
10.02.2019 23:00:00 12,0 11,0 26 14 SE - 10
10.02.2019 22:00:00 12,4 11,1 13 7 S 1014,8 10
10.02.2019 21:00:00 12,0 11,0 22 12 SE - 10
10.02.2019 20:00:00 12,0 11,0 24 13 ESE - 10
10.02.2019 19:00:00 12,4 11,6 26 14 SE 1018,3 15
10.02.2019 18:00:00 13,0 10,0 29 16 SSE - 10
10.02.2019 17:00:00 14,0 11,0 28 15 SSE - 10
10.02.2019 16:00:00 14,8 11,4 31 17 SSE 1019,6 20
10.02.2019 15:00:00 15,0 11,0 28 15 SSE - 10
10.02.2019 14:00:00 15,0 11,0 34 18 SSE - 10
10.02.2019 13:00:00 15,4 10,8 26 14 SSE 1021,7 20
10.02.2019 12:00:00 15,0 10,0 29 16 S - 10
10.02.2019 11:00:00 15,0 10,0 31 17 S - 10
10.02.2019 10:00:00 13,2 10,4 18 10 SE 1022,7 15
10.02.2019 09:00:00 12,0 10,0 13 7 ESE - 10
10.02.2019 08:00:00 12,0 10,0 13 7 ESE - 10
10.02.2019 07:00:00 12,0 10,1 13 7 E 1022,7 12

tt = Temperatura
td = dewpoint
ff = velocità del vento
dd = direzione del vento
ppp = reduced air pressure
vv = visibility

Stazioni seguenti

WeatherPro
AMSI
MeteoEarth